Rugby, ND

5:09 AM CDT on August 29, 2016 (GMT -0500)
Rugby Municipal

Weather History for KRUG - December, 2012

Change the Weather History Date:

Wednesday, December 12, 2012

  Actual Average Record
Temperature  
Mean Temperature 7 °F -  
Max Temperature 14 °F 23 °F 42 °F (1957)
Min Temperature 0 °F 3 °F -23 °F (1985)
Degree Days  
Heating Degree Days 58    
Moisture  
Dew Point 3 °F    
Average Humidity 87    
Maximum Humidity 92    
Minimum Humidity 78    
Precipitation  
Precipitation 0.15 in - - ()
Sea Level Pressure  
Sea Level Pressure 29.75 in    
Wind  
Wind Speed 15 mph (ENE)    
Max Wind Speed 24 mph    
Max Gust Speed 32 mph    
Visibility 9 miles    
Events Snow    
Averages and records for this station are not official NWS values.
T = Trace of Precipitation, MM = Missing Value Source: NWS Daily Summary

Daily Weather History Graph

Daily Weather History Graph

Search for Another Location

Airport or City:

Trip Planner

Search our weather history database for the weather conditions in past years. The results will help you decide how hot, cold, wet, or windy it might be!

Date:

Astronomy

Dec. 12, 2012 Rise Set
Actual Time 8:22 AM CST 4:45 PM CST
Civil Twilight 7:46 AM CST 5:21 PM CST
Nautical Twilight 7:06 AM CST 6:01 PM CST
Astronomical Twilight 6:28 AM CST 6:39 PM CST
Moon 7:27 AM CST (12/12) 4:25 PM CST (12/12)
Length of Visible Light 9h 35m
Length of Day
8h 22m
Waning Crescent, 1% of the Moon is Illuminated
Dec 12
Waning Crescent
Dec 13
New
Dec 19
First Quarter
Dec 28
Full
Jan 4
Last Quarter

Hourly Weather History & Observations

Time (CST) Temp. Windchill Dew Point Humidity Pressure Visibility Wind Dir Wind Speed Gust Speed Precip Events Conditions
12:15 AM 10.4 °F -9.5 °F 6.8 °F 85% 29.60 in 1.0 mi SE 23.0 mph 29.9 mph 0.02 in Snow Light Snow
12:35 AM 10.4 °F -9.5 °F 8.6 °F 92% 29.60 in 0.8 mi SE 23.0 mph 32.2 mph 0.08 in Snow Light Snow
12:55 AM 10.4 °F -9.9 °F 8.6 °F 92% 29.59 in 1.0 mi SE 24.2 mph 31.1 mph 0.14 in Snow Light Snow
1:15 AM 10.4 °F -8.6 °F 8.6 °F 92% 29.59 in 2.5 mi SE 20.7 mph 29.9 mph N/A Snow Light Snow
1:35 AM 10.4 °F -8.2 °F 8.6 °F 92% 29.60 in 6.0 mi SE 19.6 mph 24.2 mph N/A   Mostly Cloudy
1:55 AM 10.4 °F -5.4 °F 8.6 °F 92% 29.60 in 8.0 mi SE 13.8 mph 26.5 mph N/A   Mostly Cloudy
2:15 AM 10.4 °F -7.7 °F 8.6 °F 92% 29.60 in 1.8 mi SE 18.4 mph 25.3 mph N/A Snow Light Snow
2:35 AM 10.4 °F -6.0 °F 8.6 °F 92% 29.60 in 2.5 mi ESE 15.0 mph 24.2 mph 0.01 in Snow Light Snow
2:55 AM 10.4 °F -5.4 °F 8.6 °F 92% 29.61 in 5.0 mi ESE 13.8 mph - 0.01 in Snow Light Snow
3:15 AM 10.4 °F -6.6 °F 8.6 °F 92% 29.60 in 10.0 mi ESE 16.1 mph - N/A   Overcast
3:35 AM 12.2 °F -4.8 °F 8.6 °F 85% 29.60 in 10.0 mi ESE 17.3 mph - N/A   Overcast
3:55 AM 14.0 °F -2.0 °F 8.6 °F 79% 29.59 in 10.0 mi ESE 16.1 mph - N/A   Overcast
4:15 AM 14.0 °F -3.0 °F 10.4 °F 86% 29.59 in 10.0 mi ESE 18.4 mph - N/A   Overcast
4:35 AM 14.0 °F -1.4 °F 8.6 °F 79% 29.60 in 10.0 mi ESE 15.0 mph - N/A   Overcast
4:55 AM 12.2 °F -3.1 °F 8.6 °F 85% 29.60 in 10.0 mi ESE 13.8 mph - N/A   Overcast
5:15 AM 12.2 °F -2.5 °F 8.6 °F 85% 29.60 in 10.0 mi East 12.7 mph - N/A   Scattered Clouds
5:35 AM 12.2 °F -2.5 °F 8.6 °F 85% 29.60 in 10.0 mi East 12.7 mph - N/A   Mostly Cloudy
5:55 AM 10.4 °F -4.8 °F 8.6 °F 92% 29.61 in 10.0 mi East 12.7 mph - N/A   Mostly Cloudy
6:15 AM 10.4 °F -4.1 °F 8.6 °F 92% 29.62 in 10.0 mi East 11.5 mph - N/A   Mostly Cloudy
6:35 AM 10.4 °F -6.0 °F 6.8 °F 85% 29.62 in 10.0 mi East 15.0 mph - N/A   Overcast
6:55 AM 10.4 °F -6.0 °F 8.6 °F 92% 29.63 in 10.0 mi ENE 15.0 mph - N/A   Overcast
7:15 AM 10.4 °F -6.6 °F 6.8 °F 85% 29.63 in 10.0 mi ENE 16.1 mph - N/A   Overcast
7:35 AM 10.4 °F -6.6 °F 6.8 °F 85% 29.64 in 10.0 mi ENE 16.1 mph - N/A   Overcast
7:55 AM 10.4 °F -6.6 °F 6.8 °F 85% 29.65 in 10.0 mi ENE 16.1 mph - N/A   Overcast
8:15 AM 8.6 °F -8.3 °F 6.8 °F 92% 29.66 in 10.0 mi ENE 15.0 mph - N/A   Overcast
8:35 AM 8.6 °F -8.3 °F 6.8 °F 92% 29.67 in 10.0 mi ENE 15.0 mph 19.6 mph N/A   Overcast
8:55 AM 8.6 °F -8.3 °F 6.8 °F 92% 29.68 in 10.0 mi ENE 15.0 mph - N/A   Overcast
9:15 AM 8.6 °F -8.3 °F 5.0 °F 85% 29.69 in 10.0 mi ENE 15.0 mph - N/A   Overcast
9:35 AM 8.6 °F -8.9 °F 5.0 °F 85% 29.70 in 10.0 mi ENE 16.1 mph - N/A   Overcast
9:55 AM 6.8 °F -11.8 °F 3.2 °F 85% 29.71 in 9.0 mi ENE 17.3 mph - N/A   Overcast
10:15 AM 6.8 °F -11.3 °F 3.2 °F 85% 29.72 in 7.0 mi ENE 16.1 mph - N/A   Overcast
10:35 AM 6.8 °F -11.3 °F 1.4 °F 79% 29.73 in 8.0 mi ENE 16.1 mph - N/A   Overcast
10:55 AM 5.0 °F -13.0 °F 1.4 °F 85% 29.74 in 8.0 mi NE 15.0 mph - N/A   Overcast
11:15 AM 5.0 °F -12.3 °F 1.4 °F 85% 29.77 in 10.0 mi NE 13.8 mph - N/A   Overcast
11:35 AM 5.0 °F -12.3 °F -0.4 °F 78% 29.77 in 10.0 mi NE 13.8 mph - N/A   Overcast
11:55 AM 5.0 °F -12.3 °F -0.4 °F 78% 29.77 in 10.0 mi ENE 13.8 mph - N/A   Overcast
12:15 PM 3.2 °F -14.6 °F -0.4 °F 85% 29.77 in 10.0 mi ENE 13.8 mph - N/A   Overcast
12:35 PM 3.2 °F -13.9 °F -0.4 °F 85% 29.78 in 10.0 mi ENE 12.7 mph - N/A   Overcast
12:55 PM 3.2 °F -12.2 °F -0.4 °F 85% 29.77 in 9.0 mi ENE 10.4 mph - N/A   Overcast
1:15 PM 3.2 °F -10.3 °F -0.4 °F 85% 29.78 in 10.0 mi ENE 8.1 mph - N/A   Overcast
1:35 PM 3.2 °F -9.1 °F -0.4 °F 85% 29.79 in 10.0 mi ENE 6.9 mph - N/A   Overcast
1:55 PM 3.2 °F -11.3 °F -0.4 °F 85% 29.79 in 9.0 mi NE 9.2 mph - N/A   Overcast
2:15 PM 3.2 °F -11.3 °F -0.4 °F 85% 29.79 in 10.0 mi NE 9.2 mph - N/A   Overcast
2:35 PM 5.0 °F -9.1 °F -0.4 °F 78% 29.79 in 10.0 mi NE 9.2 mph - N/A   Overcast
2:55 PM 3.2 °F -11.3 °F -0.4 °F 85% 29.80 in 10.0 mi East 9.2 mph - N/A   Overcast
3:15 PM 3.2 °F -11.3 °F -0.4 °F 85% 29.80 in 10.0 mi ENE 9.2 mph - N/A   Overcast
3:35 PM 3.2 °F -12.2 °F -0.4 °F 85% 29.82 in 10.0 mi ENE 10.4 mph - N/A   Overcast
3:55 PM 3.2 °F -10.3 °F -0.4 °F 85% 29.83 in 10.0 mi ENE 8.1 mph - N/A   Overcast
4:15 PM 3.2 °F -12.2 °F -0.4 °F 85% 29.83 in 10.0 mi East 10.4 mph - N/A   Overcast
4:35 PM 1.4 °F -13.5 °F -0.4 °F 92% 29.85 in 10.0 mi ENE 9.2 mph - N/A   Overcast
4:55 PM 3.2 °F -10.3 °F -0.4 °F 85% 29.85 in 10.0 mi ENE 8.1 mph - N/A   Overcast
5:15 PM 1.4 °F -11.3 °F -0.4 °F 92% 29.86 in 10.0 mi ENE 6.9 mph - N/A   Overcast
5:35 PM 1.4 °F -13.5 °F -0.4 °F 92% 29.87 in 10.0 mi ENE 9.2 mph - N/A   Overcast
6:15 PM 1.4 °F -14.5 °F -0.4 °F 92% 29.88 in 10.0 mi ENE 10.4 mph - N/A   Overcast
6:35 PM 1.4 °F -14.5 °F -0.4 °F 92% 29.89 in 10.0 mi ENE 10.4 mph - N/A   Overcast
6:55 PM 1.4 °F -15.3 °F -2.2 °F 85% 29.89 in 10.0 mi ENE 11.5 mph - N/A   Overcast
7:15 PM 1.4 °F -13.5 °F -2.2 °F 85% 29.91 in 10.0 mi ENE 9.2 mph - N/A   Overcast
7:35 PM 1.4 °F -14.5 °F -2.2 °F 85% 29.91 in 10.0 mi ENE 10.4 mph - N/A   Overcast
7:55 PM 1.4 °F -15.3 °F -2.2 °F 85% 29.92 in 10.0 mi East 11.5 mph - N/A   Overcast
8:15 PM 1.4 °F -15.3 °F -0.4 °F 92% 29.92 in 7.0 mi East 11.5 mph - N/A   Overcast
8:35 PM -0.4 °F -16.7 °F -2.2 °F 92% 29.93 in 10.0 mi ENE 10.4 mph - N/A   Overcast
8:55 PM 1.4 °F -13.5 °F -2.2 °F 85% 29.94 in 10.0 mi ENE 9.2 mph - N/A   Overcast
9:35 PM -0.4 °F -17.6 °F -2.2 °F 92% 29.94 in 10.0 mi ENE 11.5 mph - N/A   Overcast
9:55 PM -0.4 °F -14.7 °F -2.2 °F 92% 29.95 in 10.0 mi NE 8.1 mph - N/A   Overcast
10:15 PM -0.4 °F -13.4 °F -2.2 °F 92% 29.96 in 10.0 mi ENE 6.9 mph - N/A   Overcast
10:35 PM 1.4 °F -11.3 °F -2.2 °F 85% 29.96 in 10.0 mi ENE 6.9 mph - N/A   Overcast
10:55 PM 1.4 °F -12.5 °F -2.2 °F 85% 29.96 in 10.0 mi ENE 8.1 mph - N/A   Overcast
11:15 PM -0.4 °F -13.4 °F -2.2 °F 92% 29.97 in 10.0 mi ENE 6.9 mph - N/A   Overcast
11:35 PM -0.4 °F -13.4 °F -2.2 °F 92% 29.98 in 5.0 mi NE 6.9 mph - N/A   Overcast
11:55 PM -0.4 °F -12.0 °F -2.2 °F 92% 29.99 in 9.0 mi NE 5.8 mph - N/A   Overcast